Fairbanks, AK

7:44 AM AKDT on October 17, 2019 (GMT -0800)
Fairbanks International

Weather History for PAFA - May, 2019

Change the Weather History Date:

Saturday, May 4, 2019

  Actual Average Record
Temperature  
Mean Temperature 42 °F 44 °F  
Max Temperature 50 °F 56 °F 69 °F (1907)
Min Temperature 33 °F 33 °F 9 °F (1945)
Degree Days  
Heating Degree Days 23 21  
Month to date heating degree days 77 86  
Since 1 July heating degree days 11339 13110  
Cooling Degree Days 0 0  
Month to date cooling degree days 0 0  
Year to date cooling degree days 0 0  
Moisture  
Dew Point 21 °F    
Average Humidity 45    
Maximum Humidity 61    
Minimum Humidity 31    
Precipitation  
Precipitation 0.00 in 0.01 in 0.37 in (1984)
Month to date precipitation 0.07 0.06  
Year to date precipitation 2.55 1.62  
Snow  
Snow 0.00 in 0.00 in 3.20 in (2001)
Month to date snowfall T 0.2  
Since 1 July snowfall 57.5 64.3  
Snow Depth 0.00 in    
Sea Level Pressure  
Sea Level Pressure 30.07 in    
Wind  
Wind Speed 8 mph (North)    
Max Wind Speed 15 mph    
Max Gust Speed -    
Visibility 10 miles    
Events      
T = Trace of Precipitation, MM = Missing Value Source: NWS Daily Summary

Daily Weather History Graph

Daily Weather History Graph

Search for Another Location

Airport or City:

Astronomy

May. 04, 2019 Rise Set
Actual Time 5:07 AM AKDT 10:31 PM AKDT
Civil Twilight 3:49 AM AKDT 11:51 PM AKDT
Nautical Twilight Sun does not rise Sun does not rise
Astronomical Twilight Sun does not rise Sun does not rise
Moon 6:08 AM AKDT (5/4) 10:04 PM AKDT (5/4)
Length of Visible Light 20h 02m
Length of Day
17h 23m
Waning Crescent, 0% of the Moon is Illuminated
May 4
Waning Crescent
May 4
New
May 11
First Quarter
May 18
Full
May 26
Last Quarter

Hourly Weather History & Observations

Time (AKDT) Temp. Windchill Dew Point Humidity Pressure Visibility Wind Dir Wind Speed Gust Speed Precip Events Conditions
12:53 AM 37.0 °F 30.4 °F 19.9 °F 50% 30.09 in 10.0 mi North 9.2 mph - N/A   Mostly Cloudy
1:53 AM 35.1 °F 27.9 °F 19.9 °F 54% 30.09 in 10.0 mi NNW 9.2 mph - N/A   Mostly Cloudy
2:53 AM 33.1 °F 26.1 °F 21.0 °F 61% 30.09 in 10.0 mi North 8.1 mph - N/A   Mostly Cloudy
3:53 AM 34.0 °F 28.0 °F 19.9 °F 56% 30.09 in 10.0 mi North 6.9 mph - N/A   Mostly Cloudy
4:53 AM 34.0 °F 27.2 °F 19.9 °F 56% 30.09 in 10.0 mi North 8.1 mph - N/A   Mostly Cloudy
5:53 AM 33.1 °F 26.9 °F 19.9 °F 59% 30.09 in 10.0 mi North 6.9 mph - N/A   Mostly Cloudy
6:53 AM 34.0 °F 26.6 °F 19.9 °F 56% 30.10 in 10.0 mi North 9.2 mph - N/A   Mostly Cloudy
7:53 AM 35.1 °F 27.9 °F 19.9 °F 54% 30.10 in 10.0 mi North 9.2 mph - N/A   Mostly Cloudy
8:53 AM 37.0 °F 33.3 °F 21.0 °F 52% 30.10 in 10.0 mi North 4.6 mph - N/A   Mostly Cloudy
9:53 AM 37.9 °F 33.5 °F 21.0 °F 51% 30.10 in 10.0 mi NNE 5.8 mph - N/A   Mostly Cloudy
10:53 AM 39.9 °F 37.8 °F 21.0 °F 47% 30.09 in 10.0 mi Variable 3.5 mph - N/A   Scattered Clouds
11:53 AM 43.0 °F 38.8 °F 21.9 °F 43% 30.09 in 10.0 mi Variable 6.9 mph - N/A   Scattered Clouds
12:53 PM 45.0 °F - 19.9 °F 37% 30.08 in 10.0 mi Calm Calm - N/A   Partly Cloudy
1:53 PM 46.9 °F - 21.0 °F 36% 30.07 in 10.0 mi NNW 9.2 mph - N/A   Mostly Cloudy
2:53 PM 46.9 °F - 19.9 °F 34% 30.06 in 10.0 mi Variable 3.5 mph - N/A   Mostly Cloudy
3:53 PM 48.9 °F - 21.0 °F 33% 30.04 in 10.0 mi NW 5.8 mph - N/A   Mostly Cloudy
4:53 PM 48.0 °F - 19.0 °F 32% 30.04 in 10.0 mi NNW 5.8 mph - N/A   Mostly Cloudy
5:53 PM 46.9 °F - 21.0 °F 36% 30.03 in 10.0 mi NNW 9.2 mph - N/A   Mostly Cloudy
6:53 PM 46.0 °F 42.5 °F 21.9 °F 39% 30.04 in 10.0 mi NE 6.9 mph - N/A   Mostly Cloudy
7:53 PM 46.9 °F - 21.9 °F 37% 30.03 in 10.0 mi North 12.7 mph - N/A   Mostly Cloudy
8:53 PM 44.1 °F 37.1 °F 21.0 °F 40% 30.03 in 10.0 mi North 15.0 mph - N/A   Mostly Cloudy
9:53 PM 41.0 °F 33.9 °F 21.0 °F 45% 30.04 in 10.0 mi North 12.7 mph - N/A   Mostly Cloudy
10:53 PM 37.0 °F 31.0 °F 19.9 °F 50% 30.04 in 10.0 mi North 8.1 mph - N/A   Scattered Clouds
11:53 PM 36.0 °F 29.0 °F 19.0 °F 50% 30.04 in 10.0 mi North 9.2 mph - N/A   Partly Cloudy